sat.trackr.live / text

‹ back to catalog

STARLINK-4663

NORAD 53724 · 2022-107AA

PAYLOAD ACTIVE UNKNOWN

§ Identity

Operator
Country
US
Launch date
2022-09-05
Launch site
AFETR
Launch vehicle
Mass (kg)
RCS (m²)

Purposes: comms

External: N2YO · Heavens-Above · Gunter

§ Orbital elements

Epoch: 2026-05-24T18:44:21.329952Z

Period
95.44 min
Inclination
53.2148°
Eccentricity
0.0001298
Mean motion
15.08836617 rev/d
Perigee alt
538.9 km
Apogee alt
540.7 km
Semi-major
6,917.9 km
B*
3.3041e-5
RAAN
272.3313°
Arg perigee
79.1106°
Mean anomaly
281.0032°
Rev number
20,590

§ Raw data

STARLINK-46631 53724U 22107AA  26144.78080243  .00000238  00000+0  33041-4 0  99992 53724  53.2148 272.3313 0001298  79.1106 281.0032 15.08836617205908

JSON: /api/v1/satellites/53724 · /tle

For live sub-satellite position, see the globe view (requires WebGL).

§ Visibility from observer

Set your observer location to see the next 7 days of passes ≥ 10°. The values pass through the URL so the page stays shareable.

No JS? Fill the form by hand. The geolocation button needs JavaScript.